Regional Weather Roundup
Issued by NWS Grand Forks, ND

Home | Current Version | Previous Version | Text Only | Print | Product List | Glossary Off
Versions: 1 2 3 4 5 6 7 8 9 10 11 12 13 14 15 16 17 18 19 20 21 22 23 24 25 26 27 28 29 30 31 32 33 34 35 36 37 38 39 40 41 42 43 44 45 46 47 48 49 50

000
ASUS43 KFGF 262131
RWRFGF
PRAIRIE TO PINES  WEATHER ROUNDUP
NATIONAL WEATHER SERVICE EASTERN NORTH DAKOTA/GRAND FORKS ND
300 PM CST WED NOV 26 2014

 **SATELLITE DATA USED TO AUGMENT SKY COVER AT AUTOMATED STATIONS**
 *****  WEATHER ACROSS EASTERN NORTH DAKOTA  *****

CITY           SKY/WX    TMP DP  RH WIND       PRES   REMARKS
GRAND FORKS    MOSUNNY    3  -6  66 N14       30.48R WCI -15
GRAND FRKS AFB SUNNY      3  -6  64 N10       30.47R WCI -12
GRAND FRKS NWS   N/A      1 N/A N/A N12         N/A  WCI -15
DEVILS LAKE    SUNNY      1 -13  51 N10       30.41S WCI -14
FARGO          MOSUNNY    5  -5  63 N16       30.45R WCI -14
WAHPETON ARPT  MOCLDY     7  -4  61 N16       30.42R WCI -11
$$

 ***** WEATHER ACROSS CENTRAL AND WESTERN NORTH DAKOTA  *****

CITY           SKY/WX    TMP DP  RH WIND       PRES   REMARKS
BISMARCK       CLOUDY    10   2  69 NE7       30.40R WCI  -1
MINOT          SUNNY      3  -5  69 NW6       30.42R WCI  -8
JAMESTOWN      MOSUNNY    3  -5  69 N8        30.40R WCI -10
MINOT AFB      SUNNY      2  -5  74 NW6       30.42R WCI  -9
GARRISON         N/A      7   1  76 N5        30.38R WCI  -2
WILLISTON      MOSUNNY   13   4  67 NE8       30.36S WCI   2
DICKINSON      MOSUNNY   21  13  71 N7        30.27R WCI  12
HETTINGER      CLOUDY    21  14  74 N9        30.29R WCI  11
$$

 *****  OTHER AIRPORT OBSERVATIONS IN OUR AREA  *****

CITY           SKY/WX    TMP DP  RH WIND       PRES   REMARKS
WALHALLA         N/A      0  -8  71 N13       30.49S WCI -18
GRAFTON AIRPOR FAIR       0  -8  71 N10       30.50R WCI -17
VALLEY CITY AR FAIR       3  -4  72 N10       30.41S WCI -12
CANDO          FAIR       1  -8  66 N6        30.44R WCI -10
CAVALIER APRT  FAIR       1  -6  71 N12       30.49S WCI -15
GWINNER        MOCLDY     9  -4  56 N14       30.42S WCI  -8
SHEYENNE NWR     N/A      5  -6  59 N9        29.95  WCI  -9
ROLLA          FAIR       0  -8  71 N13       30.40S WCI -18
 ***** THE ABOVE OBSERVATIONS ARE NON NWS ARE NOT QUALITY
       CONTROLLED AND MAY MIS-REPORT RAIN FOR SNOW...
$$

  *****  WEATHER ACROSS NORTHERN MINNESOTA  *****

CITY           SKY/WX    TMP DP  RH WIND       PRES   REMARKS
FLAG ISLAND    CLEAR      0  -9  65 NW10      30.40R WCI -17
WARROAD        SUNNY      1  -6  71 NW7       30.41R WCI -11
ROSEAU         SUNNY      3  -9  55 N5        30.42R WCI  -6
HALLOCK        SUNNY      0  -9  65 N12       30.48S WCI -18
THF RVR FALLS  SUNNY      1  -6  71 NW12      30.42R WCI -15
BAUDETTE       SUNNY      0  -9  65 NW12      30.37R WCI -17
WASKISH        SUNNY      3  -6  66 CALM      30.36R
CROOKSTON      SUNNY      1  -6  71 N16       30.47R WCI -18
STEPHEN NDAWN    N/A      0  -8  71 N12         N/A  WCI -18
GREENBUSH NDAW   N/A      0  -8  71 NW10        N/A  WCI -17
$$
  *****  WEATHER ACROSS CENTRAL AND WEST MINNESOTA  *****

CITY           SKY/WX    TMP DP  RH WIND       PRES   REMARKS
FOSSTON        SUNNY      3  -8  60 NW12      30.39R WCI -13
BEMIDJI        SUNNY      6  -7  54 N9        30.32R WCI  -8
PARK RAPIDS    CLOUDY    11  -6  46 NW13      30.28R WCI  -4
ELBOW LAKE     CLOUDY    10  -1  60 N17       30.34R WCI  -8
WADENA         MOSUNNY   12   1  62 N10       30.29R WCI  -1
DETROIT LAKES  MOSUNNY    5  -2  72 N15       30.36R WCI -13
MOORHEAD       MOSUNNY    3  -2  78 N16       30.45R WCI -16
FERGUS FALLS   PTSUNNY    9  -2  61 N16       30.41R WCI  -9
MORRIS MN      CLOUDY    10   3  72 NW20G25   30.33R WCI  -8
STAPLES        CLOUDY    16   1  53 N12       30.29R WCI   3
$$
  *****  WEATHER ELSEWHERE ACROSS MINNESOTA  *****

CITY           SKY/WX    TMP DP  RH WIND       PRES   REMARKS
DULUTH         FLURRIES  17   7  64 NW10      30.20R WCI   5
INTRNTL FALLS  PTCLDY     6  -5  60 N9        30.32R WCI  -8
ELY            PTCLDY    10   3  72 NW6       30.23R WCI   1
CLOQUET        MOSUNNY   18   7  62 NW8G16    30.22R WCI   7
WHEATON        PTSUNNY    7   0  72 NW17      30.42R WCI -12
BRAINERD       MOSUNNY   15   5  64 N13       30.26R WCI   1
HIBBING        MOSUNNY   15   2  56 NW13      30.24R WCI   1
ALEXANDRIA     CLOUDY    16   8  71 NW15      30.27R WCI   1
SAINT CLOUD    MOSUNNY   24  12  60 N13       30.24R WCI  12
MINNEAPOLIS    CLOUDY    25  18  74 N14       30.23R WCI  13
$$

  *****  WEATHER ACROSS SOUTH DAKOTA  *****

CITY           SKY/WX    TMP DP  RH WIND       PRES   REMARKS
SIOUX FALLS    FLURRIES  18  12  77 N20       30.30R WCI   2
BROOKINGS      NOT AVBL
WATERTOWN      CLOUDY    11   2  67 N14       30.31R WCI  -5
HURON          PTSUNNY   12   4  70 N14       30.39R WCI  -3
SISSETON         N/A      7  -2  66 N20       30.38R WCI -13
ABERDEEN       PTSUNNY    8  -1  66 N14       30.41R WCI  -8
MITCHELL       SUNNY     16   8  71 N15       30.37R WCI   1
PIERRE         CLOUDY    21  13  71 NE7       30.33S WCI  12
MOBRIDGE       CLOUDY    14   7  73 N6        30.34S WCI   5
RAPID CITY     CLOUDY    31  23  72 S3        30.23R
$$

  *****  SOME WEATHER IN NEARBY STATES *****

CITY           SKY/WX    TMP DP  RH WIND       PRES   REMARKS
GLASGOW MT     CLOUDY    23  16  74 E12       30.28R WCI  12
GREAT FALLS MT SNOW      29  29 100 E9        30.08F VSB 1/2 WCI  20
CHEYENNE WY    CLOUDY    33  25  72 S8        30.12R
SCOTTSBLUFF NE LGT SNOW  30  28  92 S3        30.23R FOG
OMAHA NE       CLOUDY    29  22  75 N23G33    30.20R WCI  15
DES MOINES IA  FLURRIES  32  27  81 N13       30.06R WCI  22
DAVENPORT IA   CLOUDY    28  23  81 E15       30.08R WCI  16
CHICAGO IL     CLOUDY    28  20  71 E8        30.10S WCI  20
EAU CLAIRE WI  LGT SNOW  24  20  84 N3        30.19R FOG
LA CROSSE WI   CLOUDY    29  18  63 N7        30.17R WCI  22
$$

  *****  SOME NATIONAL WEATHER *****

CITY           SKY/WX    TMP DP  RH WIND       PRES   REMARKS
LA GUARDIA NY  LGT RAIN  37  34  89 N16       29.83F
RALEIGH NC     PTSUNNY   43  39  87 CALM      29.99R
ATLANTA GA     MOSUNNY   55  18  23 NW13      30.06F
NEW ORLEANS LA MOSUNNY   69  35  28 SW15G22   30.18F
OKLAHOMA CITY  MOSUNNY   57  25  29 NW17      30.22R
ALBUQUERQUE NM MOSUNNY   56  20  24 CALM      30.33F
SALT LAKE CITY MOSUNNY   59  29  31 CALM      30.36F
LOS ANGELES CA SUNNY     73  30  20 W10       30.16F
BOISE ID       PTSUNNY   58  40  51 E5        30.26F
SEATTLE WA     CLOUDY    57  52  83 SW5       30.08F
$$

*** WEATHER ACROSS MANITOBA...SASKATCHEWAN AND ONTARIO ***
                ***ONTARIO***

CITY           SKY/WX    TMP DP  RH WIND       PRES   REMARKS
GERALDTON      MOCLDY     0  -9  65 NE6       30.25R WCI -12
THUNDER BAY    MOCLDY    12   5  73 N8        30.26R WCI   1
SIOUX LOOKOUT  PTCLDY     0 -11  60 N5        30.31S WCI -10
TORONTO        CLOUDY    34  25  69 NE9       30.11F
BIG TROUT LK   CLEAR    -13 -18  77 W7        30.33R WCI -29
PICKLE LAKE    CRYSTALS  -8 -17  65 W6        30.30R WCI -21
DRYDEN         CLEAR      0  -9  65 NW6       30.31S WCI -12
KENORA         PTCLDY    -2 -11  65 NW7       30.36R WCI -16
$$
                *** MANITOBA***

CITY           SKY/WX    TMP DP  RH WIND       PRES   REMARKS
BRANDON        MOSUNNY    1  -8  66 NW8       30.46R WCI -12
DAUPHIN        SUNNY     -4 -13  65 SW3       30.51R
ISLAND LAKE    PTCLDY    -9 -18  64 W10       30.40R WCI -28
PILOT MOUND      N/A     -2  -9  71 NW9         N/A  WCI -18
THE PAS        PTCLDY    -6 -15  65 W8        30.48S WCI -21
THOMPSON       CLEAR     -9 -17  70 SW7       30.40S WCI -24
WINNIPEG       CRYSTALS  -2 -11  65 NW8       30.51R WCI -17
LYNN LAKE      CLEAR     -6 -13  71 SW8       30.31F WCI -21
CHURCHILL      MOCLDY    -6 -13  71 W14       30.25F WCI -26
GILLAM         CLEAR     -9 -17  70 W8        30.36R WCI -26
$$
                ***SASKATCHEWAN***

CITY           SKY/WX    TMP DP  RH WIND       PRES   REMARKS
ESTEVAN        MOSUNNY    3  -4  72 E5        30.39S WCI  -6
KINDERSLEY     CLOUDY    14  10  85 S8        30.24F WCI   3
LLOYDMINSTER   FLURRIES   7   3  85 SE8       30.21F WCI  -6
PRINCE ALBERT  MOSUNNY   -4 -11  71 NE5       30.42S WCI -15
REGINA         MOSUNNY    1  -6  71 SE7       30.39F WCI -11
YORKTON        SUNNY     -4  -9  77 SW6       30.43F WCI -16
N. BATTLEFORD  CLOUDY     7   3  85 SE12      30.33F WCI  -9
LA RONGE       PTCLDY    -2  -8  78 S3        30.40S
SASKATOON      PTSUNNY    7   0  72 S8        30.39R WCI  -6
SWIFT CURRENT  PTSUNNY   14  12  92 S14       30.22F WCI  -1
$$
NOTE: THESE ARE AUTOMATED STATIONS WITH LIMITED QUALITY CONTROL
      "FAIR" INDICATES FEW OR NO CLOUDS BELOW 12,000 FEET WITH NO
      SIGNIFICANT WEATHER AND/OR OBSTRUCTIONS TO VISIBILITY.
      SKY/WX - SKY CONDITION AND SIGNIFICANT WEATHER.
      TMP - AIR TEMPERATURE.    DP   - DEWPOINT TEMPERATURE.
      RH  - RELATIVE HUMIDITY.  PRES - PRESSURE.
      HX  - HEAT INDEX.         WCI  - WIND CHILL INDEX.
$


USA.gov is the U.S. government's official web portal to all federal, state and local government web resources and services.